Weather History for Madisonville, KY

Change the Weather History Date:

Friday, March 8, 2013

  Actual Average (KOWB) Record (KOWB)
Temperature  
Mean Temperature 40 °F -  
Max Temperature 54 °F 55 °F 79 °F (1974)
Min Temperature 27 °F 32 °F 8 °F (1943)
Degree Days  
Heating Degree Days 24    
Moisture  
Dew Point 31 °F    
Average Humidity 73    
Maximum Humidity 99    
Minimum Humidity 42    
Precipitation  
Precipitation 0.00 in - - ()
Sea Level Pressure  
Sea Level Pressure 30.38 in    
Wind  
Wind Speed 4 mph (East)    
Max Wind Speed 14 mph    
Max Gust Speed 18 mph    
Visibility 9 miles    
Events      
Averages and records for this station are not official NWS values.
T = Trace of Precipitation, MM = Missing Value Source: NWS Daily Summary

Daily Weather History Graph

Daily Weather History Graph

Search for Another Location

Airport:

Trip Planner

Search our weather history database for the weather conditions in past years. The results will help you decide how hot, cold, wet, or windy it might be!

Date:

Astronomy

Mar. 08, 2013 Rise Set
Actual Time 6:10 AM CST 5:50 PM CST
Civil Twilight 5:44 AM CST 6:16 PM CST
Nautical Twilight 5:14 AM CST 6:46 PM CST
Astronomical Twilight 4:44 AM CST 7:17 PM CST
Moon 3:51 AM CST (3/8) 2:48 PM CST (3/8)
Length of Visible Light 12h 32m
Length of Day
11h 40m
Waning Crescent, 11% of the Moon is Illuminated
Mar 8
Waning Crescent
Mar 11
New
Mar 19
First Quarter
Mar 27
Full
Apr 2
Last Quarter

Hourly Weather History & Observations

Time (CST) Temp. Windchill Dew Point Humidity Pressure Visibility Wind Dir Wind Speed Gust Speed Precip Events Conditions
12:15 AM 30.2 °F - 29.1 °F 96% 30.38 in 10.0 mi Calm Calm - N/A   Clear
12:35 AM 29.3 °F - 28.6 °F 97% 30.39 in 7.0 mi Calm Calm - N/A   Clear
12:55 AM 30.2 °F - 29.3 °F 96% 30.39 in 10.0 mi Calm Calm - N/A   Clear
1:15 AM 29.1 °F - 28.6 °F 98% 30.40 in 7.0 mi Calm Calm - N/A   Clear
1:35 AM 28.9 °F - 28.2 °F 97% 30.40 in 7.0 mi Calm Calm - N/A   Clear
1:55 AM 28.4 °F - 28.0 °F 99% 30.40 in 7.0 mi Calm Calm - N/A   Clear
2:15 AM 29.1 °F 25.4 °F 28.4 °F 97% 30.40 in 7.0 mi North 3.5 mph - N/A   Clear
2:35 AM 28.6 °F 23.5 °F 28.0 °F 98% 30.39 in 10.0 mi NE 4.6 mph - N/A   Clear
2:55 AM 29.8 °F 23.9 °F 28.4 °F 94% 30.38 in 10.0 mi ENE 5.8 mph - N/A   Clear
3:15 AM 29.5 °F 23.4 °F 28.0 °F 94% 30.38 in 10.0 mi East 5.8 mph - N/A   Clear
3:35 AM 29.1 °F - 27.9 °F 95% 30.39 in 10.0 mi Calm Calm - N/A   Clear
3:55 AM 28.4 °F - 27.3 °F 96% 30.40 in 10.0 mi Calm Calm - N/A   Clear
4:15 AM 28.9 °F 22.8 °F 27.5 °F 94% 30.40 in 10.0 mi ENE 5.8 mph - N/A   Clear
4:35 AM 28.0 °F - 27.0 °F 96% 30.40 in 7.0 mi Calm Calm - N/A   Clear
4:55 AM 29.1 °F - 27.9 °F 95% 30.42 in 10.0 mi Calm Calm - N/A   Clear
5:15 AM 27.3 °F - 26.6 °F 97% 30.43 in 7.0 mi Calm Calm - N/A   Clear
5:35 AM 27.5 °F 23.6 °F 26.6 °F 96% 30.42 in 7.0 mi ENE 3.5 mph - N/A   Clear
5:55 AM 27.9 °F - 27.3 °F 98% 30.43 in 7.0 mi Calm Calm - N/A   Clear
6:15 AM 27.5 °F - 27.1 °F 99% 30.43 in 7.0 mi Calm Calm - N/A   Clear
6:35 AM 28.0 °F - 27.5 °F 98% 30.44 in 5.0 mi Calm Calm - N/A   Clear
6:55 AM 29.3 °F 25.6 °F 28.4 °F 96% 30.44 in 7.0 mi ENE 3.5 mph - N/A   Clear
7:15 AM 31.1 °F 26.4 °F 29.8 °F 95% 30.44 in 7.0 mi ENE 4.6 mph - N/A   Clear
7:35 AM 32.0 °F 28.7 °F 30.6 °F 94% 30.45 in 7.0 mi ENE 3.5 mph - N/A   Clear
7:55 AM 34.0 °F 28.0 °F 31.1 °F 89% 30.44 in 10.0 mi East 6.9 mph - N/A   Clear
8:15 AM 36.1 °F 30.6 °F 31.8 °F 84% 30.44 in 10.0 mi East 6.9 mph - N/A   Clear
8:55 AM 38.7 °F 32.9 °F 32.0 °F 77% 30.44 in 10.0 mi East 8.1 mph - N/A   Clear
9:15 AM 39.7 °F 32.3 °F 30.6 °F 70% 30.44 in 10.0 mi East 12.7 mph - N/A   Clear
9:35 AM 41.0 °F 34.3 °F 30.7 °F 67% 30.46 in 10.0 mi ESE 11.5 mph - N/A   Clear
9:55 AM 41.7 °F 36.7 °F 31.5 °F 67% 30.46 in 10.0 mi East 8.1 mph - N/A   Clear
10:15 AM 42.4 °F 38.1 °F 31.6 °F 66% 30.46 in 10.0 mi SE 6.9 mph - N/A   Clear
10:35 AM 43.5 °F 40.1 °F 31.6 °F 63% 30.46 in 10.0 mi East 5.8 mph - N/A   Clear
10:55 AM 44.2 °F 39.2 °F 32.4 °F 63% 30.45 in 10.0 mi East 9.2 mph - N/A   Clear
11:15 AM 44.4 °F 40.5 °F 32.4 °F 63% 30.44 in 10.0 mi ENE 6.9 mph - N/A   Clear
11:35 AM 45.1 °F 42.0 °F 32.7 °F 62% 30.45 in 10.0 mi East 5.8 mph - N/A   Clear
11:55 AM 46.0 °F 44.8 °F 32.0 °F 58% 30.45 in 7.0 mi ENE 3.5 mph - N/A   Clear
12:15 PM 47.1 °F - 33.4 °F 59% 30.41 in 10.0 mi East 5.8 mph - N/A   Clear
12:35 PM 48.0 °F - 34.9 °F 60% 30.39 in 10.0 mi ENE 8.1 mph - N/A   Clear
12:55 PM 49.1 °F - 34.9 °F 58% 30.37 in 10.0 mi East 13.8 mph 18.4 mph N/A   Clear
1:15 PM 49.8 °F - 34.5 °F 56% 30.37 in 10.0 mi East 10.4 mph - N/A   Clear
1:35 PM 50.7 °F - 32.9 °F 51% 30.36 in 10.0 mi East 8.1 mph - N/A   Clear
1:55 PM 51.6 °F - 33.4 °F 50% 30.36 in 10.0 mi East 8.1 mph - N/A   Clear
2:15 PM 52.0 °F - 33.8 °F 50% 30.34 in 10.0 mi East 8.1 mph - N/A   Clear
2:35 PM 52.7 °F - 33.4 °F 48% 30.34 in 10.0 mi East 11.5 mph 17.3 mph N/A   Clear
2:55 PM 53.2 °F - 33.1 °F 46% 30.34 in 10.0 mi East 9.2 mph - N/A   Clear
3:15 PM 53.6 °F - 32.5 °F 45% 30.33 in 10.0 mi East 6.9 mph - N/A   Clear
3:35 PM 54.1 °F - 34.5 °F 48% 30.32 in 10.0 mi East 6.9 mph - N/A   Clear
3:55 PM 53.8 °F - 33.1 °F 45% 30.31 in 10.0 mi ENE 8.1 mph - N/A   Clear
4:15 PM 54.3 °F - 31.5 °F 42% 30.31 in 10.0 mi East 6.9 mph - N/A   Clear
4:35 PM 53.8 °F - 34.3 °F 48% 30.32 in 10.0 mi ENE 6.9 mph - N/A   Clear
4:55 PM 53.1 °F - 32.7 °F 46% 30.32 in 10.0 mi East 6.9 mph - N/A   Clear
5:15 PM 52.2 °F - 33.6 °F 49% 30.32 in 10.0 mi East 4.6 mph - N/A   Clear
5:35 PM 50.4 °F - 34.9 °F 55% 30.33 in 10.0 mi East 3.5 mph - N/A   Clear
5:55 PM 49.3 °F - 33.6 °F 55% 30.33 in 10.0 mi East 4.6 mph - N/A   Clear
6:15 PM 46.9 °F - 36.3 °F 67% 30.33 in 10.0 mi East 6.9 mph - N/A   Clear
6:35 PM 45.5 °F 42.5 °F 35.8 °F 69% 30.33 in 10.0 mi East 5.8 mph - N/A   Clear
6:55 PM 43.7 °F 40.3 °F 33.4 °F 67% 30.32 in 10.0 mi East 5.8 mph - N/A   Clear
7:15 PM 43.2 °F 39.7 °F 33.1 °F 68% 30.32 in 10.0 mi East 5.8 mph - N/A   Clear
7:35 PM 43.7 °F 40.3 °F 32.0 °F 63% 30.32 in 10.0 mi ESE 5.8 mph - N/A   Clear
7:55 PM 43.3 °F 40.7 °F 32.0 °F 64% 30.31 in 10.0 mi ESE 4.6 mph - N/A   Clear
8:15 PM 43.9 °F 41.3 °F 31.1 °F 61% 30.32 in 10.0 mi ESE 4.6 mph - N/A   Clear
8:35 PM 43.9 °F 40.5 °F 30.9 °F 60% 30.32 in 10.0 mi ESE 5.8 mph - N/A   Clear
8:55 PM 43.0 °F 39.5 °F 31.3 °F 63% 30.31 in 10.0 mi ESE 5.8 mph - N/A   Clear
9:15 PM 42.3 °F 38.6 °F 32.0 °F 67% 30.31 in 10.0 mi ESE 5.8 mph - N/A   Clear
9:35 PM 42.4 °F 38.8 °F 32.0 °F 67% 30.31 in 10.0 mi ESE 5.8 mph - N/A   Clear
10:15 PM 41.4 °F 38.4 °F 32.0 °F 69% 30.30 in 10.0 mi ESE 4.6 mph - N/A   Clear
10:35 PM 41.0 °F 38.0 °F 31.8 °F 70% 30.30 in 10.0 mi ESE 4.6 mph - N/A   Clear
10:55 PM 40.3 °F 36.3 °F 31.6 °F 71% 30.30 in 10.0 mi East 5.8 mph - N/A   Clear
11:15 PM 39.2 °F 34.2 °F 31.8 °F 75% 30.29 in 10.0 mi East 6.9 mph - N/A   Clear
11:35 PM 41.5 °F 39.6 °F 31.5 °F 67% 30.30 in 10.0 mi ESE 3.5 mph - N/A   Clear
11:55 PM 41.5 °F - 31.1 °F 66% 30.31 in 10.0 mi Calm Calm - N/A   Clear